This demonstration page uses our WeatherBlox Daily Observations layout. Learn more.

Left ArrowRight Arrow

Hourly Observations for November 22, 2020

Temp ( °F °C ) Dew Point ( °F °C ) Humidity (%) Winds ( mph kmh ) Pressure ( in mb ) Visibility ( mi km ) Precip ( " mm )
12:53 am 00:53 Cloudy with Light Rain 46 7.8 42 5.6 86 86 ENE 7 11 30.31 1026 5 8 0.02 0.51
1:53 am 01:53 Cloudy with Light Rain 45 7.2 42 5.6 90 90 ENE 10 17 30.28 1025 8 13 0.02 0.51
2:04 am 02:04 Cloudy with Light Rain 45 7.2 42 5.6 90 90 ENE 9 15 30.28 1025 8 13 0.00 0.00
2:45 am 02:45 Cloudy 45 7.2 42 5.6 90 90 ENE 7 11 30.27 1025 7 11 0.00 0.00
2:53 am 02:53 Cloudy 45 7.2 42 5.6 90 90 ENE 8 13 30.26 1025 8 13 0.00 0.00
3:53 am 03:53 Cloudy 45 7.2 42 5.6 90 90 ENE 8 13 30.23 1024 8 13 0.00 0.00
4:53 am 04:53 Cloudy 44 6.7 41 5 89 89 ENE 8 13 30.21 1023 8 13 0.00 0.00
5:04 am 05:04 Cloudy 44 6.7 41 5 89 89 ENE 8 13 30.21 1023 7 11 0.00 0.00
5:53 am 05:53 Cloudy 44 6.7 41 5 89 89 ENE 7 11 30.21 1023 7 11 0.00 0.00
6:53 am 06:53 Cloudy with Mist and Fog 43 6.1 41 5 93 93 ENE 8 13 30.19 1022 5 8 0.00 0.00
7:50 am 07:50 Cloudy with Mist and Fog 43 6 41 5 93 93 ENE 8 13 30.18 1022 2 3 0.00 0.00
7:53 am 07:53 Cloudy with Mist and Fog 42 5.6 41 5 96 96 ENE 8 13 30.16 1022 2 3 0.00 0.00
8:03 am 08:03 Cloudy with Mist and Fog 42 5.6 41 5 96 96 ENE 8 13 30.17 1022 2 3 0.00 0.00
8:17 am 08:17 Cloudy with Mist and Fog 42 5.6 40 4.4 92 92 E 8 13 30.17 1022 2 2 0.00 0.00
8:46 am 08:46 Cloudy with Mist and Fog 42 5.6 41 5 96 96 E 8 13 30.16 1021 2 2 0.00 0.00
8:53 am 08:53 Cloudy with Light Rain 42 5.6 41 5 96 96 E 9 15 30.15 1021 2 2 0.00 0.00
9:02 am 09:02 Cloudy with Light Rain 42 5.6 41 5 96 96 E 9 15 30.15 1021 2 3 0.00 0.00
9:13 am 09:13 Cloudy with Light Rain 42 5.6 41 5 96 96 ENE 7 11 30.15 1021 2 2 0.00 0.00
9:39 am 09:39 Cloudy with Rain 42 5.6 42 5.6 100 100 E 7 11 30.13 1020 2 3 0.06 1.52
9:53 am 09:53 Cloudy with Light Rain 43 6 N/A N/A E 8 13 30.11 1020 3 5 0.08 2.03
10:02 am 10:02 Cloudy with Rain 43 6 N/A N/A E 8 13 30.12 1020 3 5 0.01 0.25
10:16 am 10:16 Cloudy with Light Rain 43 6 N/A N/A E 7 11 30.10 1019 3 5 0.03 0.76
10:53 am 10:53 Cloudy with Rain 43 6 N/A N/A E 8 13 30.07 1018 3 5 0.04 1.02
11:02 am 11:02 Cloudy with Light Rain 43 6 N/A N/A E 10 17 30.07 1018 3 4 0.01 0.25
11:30 am 11:30 Cloudy with Light Rain 45 7 N/A N/A E 6 9 30.05 1017 2 2 0.03 0.76
11:43 am 11:43 Cloudy with Light Rain 45 7 N/A N/A E 3 6 30.04 1017 2 3 0.04 1.02
11:51 am 11:51 Cloudy with Light Rain 45 7 N/A N/A VRB 3 6 30.04 1017 2 3 0.05 1.27
11:53 am 11:53 Cloudy with Light Rain 45 7 N/A N/A Calm 30.02 1017 2 3 0.05 1.27
12:06 pm 12:06 Cloudy with Light Rain 45 7 N/A N/A Calm 30.03 1017 2 3 0.01 0.25
12:36 pm 12:36 Cloudy with Light Rain 46 8 N/A N/A Calm 30.00 1016 3 4 0.01 0.25
12:43 pm 12:43 Cloudy with Mist and Fog 46 8 N/A N/A Calm 29.99 1016 3 5 0.01 0.25
12:53 pm 12:53 Cloudy with Light Rain 46 8 N/A N/A Calm 29.98 1015 3 5 0.02 0.51
1:06 pm 13:06 Cloudy with Mist and Fog 46 8 N/A N/A Calm 29.99 1016 3 5 0.00 0.00
1:13 pm 13:13 Cloudy with Light Rain 46 8 N/A N/A Calm 29.99 1016 3 4 0.00 0.00
1:26 pm 13:26 Cloudy with Light Rain 46 8 N/A N/A Calm 29.98 1015 2 2 0.00 0.00
1:36 pm 13:36 Cloudy with Light Rain 46 8 N/A N/A WNW 6 9 29.99 1016 1 2 0.01 0.25
1:53 pm 13:53 Cloudy with Light Rain 45 7 N/A N/A NNW 6 9 29.98 1015 2 3 0.01 0.25
2:04 pm 14:04 Cloudy with Light Rain 45 7 N/A N/A NW 6 9 30.00 1016 3 5 0.01 0.25
2:28 pm 14:28 Cloudy with Haze 45 7 N/A N/A NW 3 6 30.00 1016 5 8 0.01 0.25
2:53 pm 14:53 Cloudy with Mist and Fog 45 7.2 45 7.2 100 100 NW 7 11 30.00 1016 5 8 0.01 0.25
3:05 pm 15:05 Cloudy with Mist and Fog 45 7.2 45 7.2 100 100 NW 8 13 30.02 1016 4 6 0.00 0.00
3:21 pm 15:21 Cloudy 45 7.2 45 7.2 100 100 NW 10 17 30.03 1017 10 16 0.00 0.00
3:39 pm 15:39 Cloudy 44 6.7 44 6.7 100 100 NW 14 22 30.04 1017 10 16 0.00 0.00
3:53 pm 15:53 Cloudy 43 6.1 43 6.1 100 100 NW 15 24 30.05 1018 10 16 0.00 0.00
4:53 pm 16:53 Cloudy 41 5 41 5 100 100 WNW 14 22 30.08 1019 10 16 0.00 0.00
5:51 pm 17:51 Cloudy 41 5 37 3 87 87 NW 15 24 30.13 1020 10 16 0.00 0.00
5:53 pm 17:53 Cloudy 41 5 38 3.3 89 89 WNW 13 20 30.12 1020 10 16 0.00 0.00
6:26 pm 18:26 Cloudy 40 4.4 38 3.3 93 93 NW 15 24 30.15 1021 10 16 0.00 0.00
6:49 pm 18:49 Cloudy 39 4 37 3 93 93 WNW 14 22 30.18 1022 10 16 0.00 0.00
6:53 pm 18:53 Cloudy 40 4.4 36 2.2 86 86 WNW 14 22 30.16 1022 10 16 0.00 0.00
7:20 pm 19:20 Cloudy 39 3.9 36 2.2 89 89 WNW 12 19 30.18 1022 10 16 0.00 0.00
7:53 pm 19:53 Cloudy 39 3.9 36 2.2 89 89 WNW 12 19 30.20 1023 10 16 0.00 0.00
8:10 pm 20:10 Cloudy 38 3.3 36 2.2 93 93 WNW 8 13 30.23 1024 10 16 0.00 0.00
8:53 pm 20:53 Cloudy 39 3.9 36 2.2 89 89 WNW 12 19 30.21 1023 10 16 0.00 0.00
9:53 pm 21:53 Cloudy 39 3.9 35 1.7 86 86 NW 10 17 30.23 1024 10 16 0.00 0.00
10:12 pm 22:12 Cloudy 39 3.9 35 1.7 86 86 NW 10 17 30.26 1025 10 16 0.00 0.00
10:53 pm 22:53 Cloudy 39 3.9 35 1.7 86 86 W 7 11 30.25 1024 10 16 0.00 0.00
11:08 pm 23:08 Cloudy 39 3.9 35 1.7 86 86 WNW 6 9 30.26 1025 10 16 0.00 0.00
11:17 pm 23:17 Cloudy 39 3.9 36 2.2 89 89 W 6 9 30.27 1025 10 16 0.00 0.00
11:53 pm 23:53 Cloudy 39 3.9 36 2.2 89 89 W 6 9 30.26 1025 10 16 0.00 0.00

Powered by AerisWeather